Location: Newark
(14.9306°N, 3.4333°E)
Time: 22:54:51
(UTC+00:00)

First-Move - Pass Details

Date: 11 December 2019
Orbit: 577 x 669 km, 97.6° (Epoch: 28 January)

Event Time Altitude Azimuth Distance (km) Brightness Sun altitude
Rises 05:10:15 0° 29° (NNE) 2,801 ? -12.3°
Reaches altitude 10° 05:12:42 10° 42° (NE) 1,892 ? -11.7°
Maximum altitude 05:16:07 26° 99° (E) 1,158 ? -11.0°
Drops below altitude 10° 05:19:31 10° 156° (SSE) 1,879 ? -10.2°
Sets 05:21:55 0° 169° (S) 2,778 ? -9.7°
